Gove Airport
YPGV : now visible

Airfield :











YOU CAN JOIN US ON...

 
LOGIN :

Register | Disclaimer

   EN    FR    IT 

 









Legend :    VFR   Marginal VFR   IFR   Intensive IFR   Very Intensive IFR
Visi :
Ceiling :
>= 8 km
>= 3000ft
5 to 8 km
1000 to 3000 ft
1500m to 5 km
500 to 1000 ft
800 to 1500m
200 to 500 ft
< 800m
< 200 ft
Symbols :   Thunderstorms  Fog  Heavy snow  Heavy precipitations  Wind > 20 kt






- Airport Elevation : 192 ft
- IATA code : GOV


YPGV - Gove

CURRENT METAR :
  • 260530Z 07011KT 030V100 9999 SCT028 32/23 Q1010 RF00.0/000.0

EXPIRED METARs :
  • 260500Z 04011KT 9999 SCT030 33/23 Q1010
  • 260430Z 05011KT 9999 BKN025 32/23 Q1010
  • 260400Z 04010KT 9999 BKN025 32/23 Q1010
  • 260330Z 03010KT 030V090 9999 SCT030 32/22 Q1011 RF00.0/000.0
  • 260300Z 07012KT 9999 SCT030 33/22 Q1011

TAF TAF YPGV
Valid from the 26 at 02:00 until the 26 at 14:00 UTC


260120Z 2602/2614 07010KT 9999 SCT025
FM261200 07005KT 9999 SCT015
YBBB FIR / Oceania



MET'MAP, your aeronautical weather chart ! - Copyright ORBIFLY December 2007 - Disclaimer

ORBIFLY MET'MAP TEAM :

Programming & Development : Alexandra Zaïnal
Concept & original design : Baudouin d'Aumeries
Assistance for programming : Marc-Olivier Méhu
Technical & hardware support : Manuel Goepfert

Contact : metmap@orbifly.com




SOURCES & CREDITS :

   NOAA       Earth
Advisory